PD1VW-10 Weather Reports


Display with metric or nautical units.
time (UTC)temp
F
wind
direction
speed
MPH
gust
MPH
rain 1hr
in
rain 24hr
in
rain mn
in
humidity
%
barometer
mb
20260831010036 62 158 5.0 7.0 0.00 0.16 0.01 98 1008.8
20260831005054 62 191 7.0 10.0 0.00 0.16 0.01 98 1008.7
20260831004030 62 158 6.0 9.0 0.00 0.16 0.01 98 1009.1
20260831003027 62 156 6.0 8.0 0.00 0.16 0.01 98 1009.1
20260831002023 62 194 7.0 9.0 0.00 0.16 0.01 99 1009.2
20260831001020 62 163 5.0 7.0 0.00 0.16 0.01 99 1009.4
20260831000017 62 172 6.0 8.0 0.00 0.16 0.01 99 1009.2
20260830235103 62 166 6.0 8.0 0.00 0.16 0.01 99 1009.3
20260830234040 61 173 6.0 7.0 0.00 0.19 0.01 99 1009.6
20260830233056 61 175 6.0 7.0 0.00 0.25 0.01 99 1009.4
20260830232033 61 180 6.0 7.0 0.01 0.27 0.01 99 1009.6
20260830231030 61 192 4.0 6.0 0.01 0.28 0.01 99 1009.6
20260830230025 62 162 5.0 7.0 0.01 0.28 0.01 99 1009.7
20260830225022 62 169 4.0 7.0 0.03 0.36 0.01 99 1009.6
20260830224018 62 157 6.0 8.0 0.14 0.40 0.01 99 1009.8
20260830223045 62 158 6.0 8.0 0.16 0.42 0.01 99 1010.0
20260830222042 62 164 6.0 10.0 0.15 0.43 0.00 99 1010.2
20260830221038 62 146 4.0 6.0 0.15 0.45 0.00 99 1010.3
20260830220035 62 182 5.0 10.0 0.15 0.54 0.54 99 1010.4
20260830215031 63 177 7.0 13.0 0.13 0.57 0.52 99 1010.6
20260830214027 64 160 12.0 16.0 0.02 0.51 0.41 92 1010.6
20260830213024 64 0.0 0.0 0.00 0.54 0.39 91 1010.4
20260830212021 64 0.0 0.0 0.00 0.55 0.39 91 1010.4
20260830211017 63 0.0 0.0 0.00 0.56 0.39 91 1010.3
20260830210044 63 0.0 0.0 0.00 0.56 0.39 91 1010.5
20260830205041 63 0.0 0.0 0.00 0.56 0.39 91 1010.7
20260830204038 63 0.0 0.0 0.00 0.56 0.39 90 1010.7
20260830203034 64 0.0 0.0 0.00 0.56 0.39 89 1011.0
20260830202030 64 0.0 0.0 0.00 0.58 0.39 89 1011.1
20260830201027 64 0.0 0.0 0.00 0.64 0.39 88 1011.0
20260830200024 64 0.0 0.0 0.00 0.65 0.39 89 1011.4
20260830195020 64 0.0 0.0 0.00 0.66 0.39 89 1011.1
20260830194037 64 0.0 0.0 0.00 0.67 0.39 89 1011.3
20260830193043 64 0.0 0.0 0.00 0.69 0.39 88 1011.4
20260830192040 64 0.0 0.0 0.00 0.70 0.39 88 1011.4
20260830191036 64 0.0 0.0 0.00 0.70 0.39 88 1011.4
20260830190053 64 0.0 0.0 0.00 0.70 0.39 87 1011.5
20260830185030 65 0.0 0.0 0.00 0.70 0.39 87 1011.6
20260830184027 65 0.0 0.0 0.00 0.70 0.39 86 1011.5
20260830183023 65 0.0 0.0 0.00 0.70 0.39 86 1011.5
20260830182020 65 0.0 0.0 0.00 0.70 0.39 86 1011.7
20260830181036 65 0.0 0.0 0.00 0.70 0.39 85 1011.7
20260830180043 65 0.0 0.0 0.00 0.70 0.39 85 1011.7
20260830175039 66 0.0 0.0 0.00 0.70 0.39 84 1011.7
20260830174036 66 0.0 0.0 0.00 0.70 0.39 84 1011.9
20260830173032 67 0.0 0.0 0.00 0.70 0.39 82 1011.8
20260830172029 67 0.0 0.0 0.00 0.70 0.39 81 1011.7
20260830171025 67 213 3.0 6.0 0.00 0.70 0.39 80 1012.0
20260830170022 68 178 2.0 7.0 0.00 0.71 0.39 80 1012.0
20260830165038 68 230 0.0 1.0 0.00 0.71 0.39 78 1012.0
20260830164045 69 226 1.0 4.0 0.00 0.71 0.39 79 1012.0
20260830163041 69 211 4.0 6.0 0.00 0.71 0.39 79 1012.1
20260830162058 69 229 6.0 11.0 0.00 0.71 0.39 79 1012.0
20260830161034 69 244 2.0 4.0 0.00 0.71 0.39 78 1012.1
20260830160031 69 252 7.0 11.0 0.00 0.71 0.39 79 1011.9
20260830155048 69 259 2.0 7.0 0.00 0.71 0.39 79 1012.1
20260830154024 69 175 4.0 7.0 0.00 0.71 0.39 79 1012.0
20260830153040 69 245 7.0 10.0 0.00 0.71 0.39 78 1012.1
20260830152017 69 233 7.0 13.0 0.00 0.71 0.39 80 1012.3
20260830151103 68 235 5.0 10.0 0.00 0.71 0.39 80 1012.4
20260830150100 68 224 0.0 1.0 0.00 0.71 0.39 81 1012.2
20260830145057 68 232 8.0 11.0 0.00 0.71 0.39 81 1012.1
20260830144033 69 266 5.0 11.0 0.00 0.71 0.39 82 1012.2
20260830143030 69 289 2.0 7.0 0.00 0.71 0.39 82 1012.0
20260830142026 68 0.0 0.0 0.00 0.71 0.39 85 1011.9
20260830141022 67 233 5.0 9.0 0.00 0.71 0.39 87 1011.7
20260830140019 67 183 1.0 6.0 0.00 0.71 0.39 86 1012.1
20260830135056 68 238 6.0 9.0 0.00 0.71 0.39 85 1012.0
20260830134043 68 219 3.0 7.0 0.00 0.71 0.39 85 1012.0
20260830133058 67 0.0 0.0 0.00 0.71 0.39 85 1011.8
20260830132035 68 218 5.0 7.0 0.00 0.71 0.39 85 1012.0
20260830131031 68 232 2.0 6.0 0.00 0.71 0.39 84 1011.7
20260830130029 68 272 4.0 7.0 0.00 0.71 0.39 85 1011.8
20260830125025 68 0.0 0.0 0.00 0.71 0.39 85 1011.9
20260830124022 67 281 2.0 7.0 0.00 0.71 0.39 87 1011.6
20260830123018 66 298 5.0 10.0 0.00 0.71 0.39 89 1011.6
20260830122015 67 285 6.0 9.0 0.00 0.71 0.39 88 1011.6
20260830121042 68 198 1.0 2.0 0.00 0.71 0.39 84 1011.4
20260830120038 69 180 4.0 7.0 0.00 0.71 0.39 82 1011.1
20260830115035 69 237 6.0 8.0 0.00 0.71 0.39 81 1011.2
20260830114031 69 247 7.0 9.0 0.00 0.71 0.39 79 1011.1
20260830113029 69 16 1.0 4.0 0.00 0.71 0.39 80 1010.7
20260830112044 69 270 6.0 10.0 0.00 0.71 0.39 80 1010.8
20260830111021 69 276 6.0 10.0 0.00 0.71 0.39 81 1010.8
20260830110017 69 242 4.0 7.0 0.00 0.71 0.39 83 1010.5
20260830105044 68 251 0.0 3.0 0.00 0.71 0.39 87 1010.6
20260830104040 68 283 3.0 7.0 0.00 0.71 0.39 85 1010.6
20260830103036 68 284 2.0 6.0 0.00 0.71 0.39 85 1010.5
20260830102033 67 282 1.0 6.0 0.00 0.71 0.39 90 1010.4
20260830101029 66 0.0 0.0 0.00 0.71 0.39 91
20260830100025 66 0.0 0.0 0.00 0.71 0.39 92
20260830095022 66 0.0 0.0 0.00 0.71 0.39 94
20260830094018 66 0.0 0.0 0.00 0.72 0.39 95
20260830093045 65 0.0 0.0 0.00 0.72 0.39 95 1009.8
20260830092041 65 0.0 0.0 0.00 0.72 0.39 95
20260830091038 66 0.0 0.0 0.00 0.72 0.39 94
20260830090054 66 0.0 0.0 0.00 0.72 0.39 94 1009.5
20260830085030 66 0.0 0.0 0.00 0.72 0.39 93 1009.2
20260830084027 66 0.0 0.0 0.00 0.72 0.39 93 1009.4
20260830083023 66 0.0 0.0 0.00 0.72 0.39 93 1009.1
20260830082019 65 0.0 0.0 0.00 0.72 0.39 93 1009.1
20260830081421 65 0.0 0.0 0.00 0.72 0.39 93 1008.9
20260830080419 65 0.0 0.0 0.00 0.72 0.39 92 1009.1
20260830075445 65 0.0 0.0 0.00 0.72 0.39 90 1008.7
20260830074442 66 255 0.0 1.0 0.00 0.72 0.39 88 1008.5
20260830073439 67 239 0.0 1.0 0.00 0.72 0.39 87 1008.6
20260830072437 67 268 0.0 2.0 0.00 0.72 0.39 87 1008.4
20260830071433 66 273 3.0 4.0 0.00 0.72 0.39 88 1008.2
20260830070431 66 280 3.0 4.0 0.00 0.72 0.39 89 1008.2
20260830065448 66 228 3.0 4.0 0.00 0.72 0.39 90 1008.1
20260830064426 65 0.0 0.0 0.00 0.72 0.39 91 1007.9
20260830063423 65 0.0 0.0 0.00 0.72 0.39 91 1007.7
20260830062420 65 221 2.0 3.0 0.00 0.72 0.39 92 1007.6
20260830061418 65 0.0 0.0 0.00 0.72 0.39 92 1007.4
20260830060415 65 0.0 0.0 0.00 0.72 0.39 92 1007.4
20260830055443 65 276 4.0 7.0 0.00 0.72 0.39 92 1007.3
20260830054440 65 263 6.0 8.0 0.00 0.72 0.39 90 1007.3
20260830053438 65 303 7.0 9.0 0.00 0.72 0.39 88 1007.2
20260830052435 65 248 5.0 8.0 0.00 0.73 0.39 88 1006.9
20260830051433 66 263 5.0 7.0 0.00 0.73 0.39 88 1006.8
20260830050431 66 265 3.0 8.0 0.00 0.74 0.39 88 1006.8
20260830045428 66 290 6.0 9.0 0.00 0.75 0.39 88 1006.4
20260830044425 66 255 4.0 6.0 0.00 0.75 0.39 88 1006.5
20260830043423 66 266 6.0 7.0 0.00 0.76 0.39 88 1006.2
20260830042420 66 263 7.0 13.0 0.00 0.76 0.39 88 1006.0
20260830041418 66 238 7.0 9.0 0.00 0.77 0.39 89 1005.9
20260830040415 66 258 7.0 9.0 0.00 0.79 0.39 89 1006.0
20260830035443 66 242 5.0 7.0 0.00 0.79 0.39 89 1005.9
20260830034440 66 208 6.0 9.0 0.00 0.80 0.39 89 1005.7
20260830033438 66 195 5.0 11.0 0.00 0.91 0.39 88 1005.7
20260830032435 66 231 11.0 22.0 0.00 0.91 0.39 89 1005.5
20260830031453 66 230 6.0 8.0 0.00 0.91 0.39 88 1005.5
20260830030450 66 242 7.0 10.0 0.00 0.91 0.39 88 1005.3
20260830025428 66 243 6.0 9.0 0.00 0.91 0.39 88 1005.1
20260830024425 66 269 7.0 13.0 0.00 0.91 0.39 87 1005.0
20260830023422 66 263 9.0 10.0 0.00 0.91 0.39 87 1005.1
20260830022419 66 249 8.0 10.0 0.00 0.91 0.39 88 1005.1
20260830021416 66 197 7.0 14.0 0.00 0.93 0.39 89 1005.0
20260830020444 66 253 6.0 9.0 0.00 0.93 0.39 90 1005.0
20260830015501 65 270 7.0 10.0 0.00 0.93 0.39 91 1004.9
20260830014438 65 243 5.0 10.0 0.00 0.93 0.39 91 1004.7
20260830013435 64 259 6.0 11.0 0.00 0.93 0.39 93 1004.6
20260830012432 64 248 8.0 13.0 0.00 0.93 0.39 97 1004.5
20260830011450 64 245 11.0 15.0 0.00 0.93 0.39 98 1004.4
20260830010428 64 0.0 0.0 0.00 0.93 0.39 99 1004.3